Miscellaneous Local Product
Issued by NWS North Platte, NE

Home | Current Version | Previous Version | Text Only | Print | Product List | Glossary On
Versions: 1 2 3 4 5 6 7 8 9 10 11 12 13 14 15 16 17 18 19 20 21 22 23 24 25 26 27 28 29 30 31 32 33 34 35 36 37 38 39 40 41 42 43 44 45 46 47 48 49 50
000
AXUS43 KLBF 272310
MISLBF


WESTERN AND NORTH CENTRAL NEBRASKA HOURLY WEATHER ROUNDUP
NATIONAL WEATHER SERVICE NORTH PLATTE NE
600 PM CDT FRI MAR 27 2015

***STATIONS NOT REPORTING VARIABLES SUCH AS SKY/WEATHER OR
PRESSURE ARE PROVIDED BY THE NEBRASKA DEPARTMENT OF
ROADS...RAWS...AND APRS NETWORKS...AND ARE NOT UNDER
NATIONAL WEATHER SERVICE QUALITY CONTROL***

...OBSERVATIONS IN AND NEAR THE EASTERN PANHANDLE OF NEBRASKA...

CITY           SKY/WX    TMP DP  RH WIND       PRES   REMARKS
PINE RIDGE     PTSUNNY   69  35  28 N13       29.93S
CHADRON        MOSUNNY   68  33  27 NW21G32   29.93F
ALLIANCE       SUNNY     69  33  26 NW23G31   29.96S
SIDNEY         MOSUNNY   68  32  26 NW16G24   30.00F
WHITECLAY        N/A     66  36  32 N14         N/A
CRESCENT LAKE    N/A     69  32  25 NW18G30     N/A
BIG SPRINGS      N/A     70  40  33 NW9         N/A
$$

...OBSERVATIONS IN NORTH CENTRAL NEBRASKA...

CITY           SKY/WX    TMP DP  RH WIND       PRES   REMARKS
VALENTINE      CLOUDY    62  34  35 N13       29.91S
THEDFORD       CLOUDY    63  36  36 N16G23    29.93S
AINSWORTH      PTSUNNY   60  38  44 NW5       29.91S
O`NEILL        MOSUNNY   40  32  74 SE18      29.98F WCI  31
ORD            PTSUNNY   48  29  47 S15       29.96F
BROKEN BOW     CLOUDY    52  36  54 S12       29.95F
BROWNLEE         N/A     64  34  33 W20         N/A
SPRINGVIEW       N/A     61  40  45 CALM        N/A
BREWSTER         N/A     55  39  54 S7          N/A
ROSE             N/A     51  37  57 SE13        N/A
NEWPORT          N/A     50  32  50 S12         N/A
SARGENT          N/A     49  36  60 CALM        N/A
COMSTOCK         N/A     51  33  49 S7          N/A
EWING            N/A     35  31  85 S9G16       N/A  WCI  28
$$

...OBSERVATIONS IN SOUTHWEST NEBRASKA AND FAR NORTHEAST COLORADO...

CITY           SKY/WX    TMP DP  RH WIND       PRES   REMARKS
WRAY           MOCLDY    74  32  21 N14G23    29.98F
HOLYOKE        FAIR      73  34  23 NW18G26   29.98S
IMPERIAL         N/A     69  35  28 N17       29.96F
OGALLALA       PTSUNNY   67  36  31 N14G21    29.95S
NORTH PLATTE   CLOUDY    66  33  29 N13       29.92S
MCCOOK         MOSUNNY   68  36  30 SW9       29.94F
LEXINGTON      CLOUDY    55  36  48 S13       29.97F
PAXTON           N/A     70  39  31 NW14        N/A
SUTHERLAND       N/A     68  29  23 W12         N/A
BRADY            N/A     63  40  43 CALM        N/A
GOTHENBURG       N/A     59  35  41 S8          N/A
CALLAWAY         N/A     56  40  56 S12         N/A
$$

...NORTH PLATTE AREA...

CITY           SKY/WX    TMP DP  RH WIND       PRES   REMARKS
AIRPORT        CLOUDY    66  33  29 N13       29.92S
DOWNTOWN         N/A     66  35  32 N3          N/A
$$

...SOME WEATHER OBSERVATIONS FROM AROUND THE REGION...

CITY           SKY/WX    TMP DP  RH WIND       PRES   REMARKS
DENVER         PTSUNNY   67  30  25 NW8       30.09S
LARAMIE        PTSUNNY   60  23  24 NW29G36   30.15S
CHEYENNE       MOSUNNY   64  25  22 NW23G33   30.09S
SCOTTSBLUFF    SUNNY     72  32  23 NW21G29   29.97S
RAPID CITY     PTSUNNY   67  36  31 N24G30    29.92S
PIERRE         MOSUNNY   50  34  54 SE14      29.88F
WINNER         FAIR      55  33  43 SE17      29.90F
SIOUX FALLS    FLURRIES  34  20  56 SW9       30.08F WCI  27
OMAHA          CLOUDY    39  15  37 W13       30.15F WCI  31
GRAND ISLAND   MOSUNNY   43  24  47 S16       30.04F
KANSAS CITY    CLOUDY    42  18  37 NW3       30.15R
WICHITA        CLOUDY    50  28  42 W6        30.13F
HAYS           SUNNY     55  34  44 S13G21    30.05F
LIBERAL        SUNNY     66  36  32 SW10      30.08F
GOODLAND       PTSUNNY   66  35  31 NW12      30.00F
$$



USA.gov is the U.S. government's official web portal to all federal, state and local government web resources and services.